Year,Month,Day,Hour,Minute,Value (Times are PST for windspeed in km/hr)
2011,07,07,00,00,1.80
2011,07,07,00,01,1.30
2011,07,07,00,02,0.60
2011,07,07,00,03,0.50
2011,07,07,00,04,0.00
2011,07,07,00,05,0.00
2011,07,07,00,06,0.00
2011,07,07,00,07,0.00
2011,07,07,00,08,0.00
2011,07,07,00,09,0.00
2011,07,07,00,10,0.00
2011,07,07,00,11,0.10
2011,07,07,00,12,0.00
2011,07,07,00,13,0.00
2011,07,07,00,14,2.90
2011,07,07,00,15,3.00
2011,07,07,00,16,0.20
2011,07,07,00,17,0.00
2011,07,07,00,18,0.00
2011,07,07,00,19,0.00
2011,07,07,00,20,0.00
2011,07,07,00,21,0.00
2011,07,07,00,22,0.00
2011,07,07,00,23,0.10
2011,07,07,00,24,0.10
2011,07,07,00,25,0.00
2011,07,07,00,26,0.00
2011,07,07,00,27,0.00
2011,07,07,00,28,0.00
2011,07,07,00,29,0.00
2011,07,07,00,30,0.00
2011,07,07,00,31,0.00
2011,07,07,00,32,0.80
2011,07,07,00,33,1.30
2011,07,07,00,34,0.10
2011,07,07,00,35,0.10
2011,07,07,00,36,0.00
2011,07,07,00,37,0.00
2011,07,07,00,38,0.00
2011,07,07,00,39,0.00
2011,07,07,00,40,0.00
2011,07,07,00,41,0.10
2011,07,07,00,42,0.00
2011,07,07,00,43,0.10
2011,07,07,00,44,0.00
2011,07,07,00,45,0.00
2011,07,07,00,46,0.00
2011,07,07,00,47,0.00
2011,07,07,00,48,0.00
2011,07,07,00,49,0.00
2011,07,07,00,50,0.00
2011,07,07,00,51,0.00
2011,07,07,00,52,0.00
2011,07,07,00,53,0.00
2011,07,07,00,54,0.00
2011,07,07,00,55,0.00
2011,07,07,00,56,0.00
2011,07,07,00,57,1.00
2011,07,07,00,58,0.00
2011,07,07,00,59,0.00
2011,07,07,01,00,0.00
2011,07,07,01,01,0.00
2011,07,07,01,02,0.00
2011,07,07,01,03,0.00
2011,07,07,01,04,0.00
2011,07,07,01,05,0.00
2011,07,07,01,06,0.00
2011,07,07,01,07,0.70
2011,07,07,01,08,0.20
2011,07,07,01,09,1.90
2011,07,07,01,10,0.00
2011,07,07,01,11,0.00
2011,07,07,01,12,1.00
2011,07,07,01,13,1.10
2011,07,07,01,14,0.00
2011,07,07,01,15,0.00
2011,07,07,01,16,0.00
2011,07,07,01,17,0.10
2011,07,07,01,18,0.10
2011,07,07,01,19,0.30
2011,07,07,01,20,1.40
2011,07,07,01,21,0.00
2011,07,07,01,22,0.10
2011,07,07,01,23,0.10
2011,07,07,01,24,0.00
2011,07,07,01,25,0.10
2011,07,07,01,26,0.00
2011,07,07,01,27,0.00
2011,07,07,01,28,0.00
2011,07,07,01,29,0.00
2011,07,07,01,30,0.00
2011,07,07,01,31,0.00
2011,07,07,01,32,0.00
2011,07,07,01,33,0.00
2011,07,07,01,34,0.00
2011,07,07,01,35,0.00
2011,07,07,01,36,0.00
2011,07,07,01,37,0.10
2011,07,07,01,38,0.00
2011,07,07,01,39,0.00
2011,07,07,01,40,0.30
2011,07,07,01,41,0.00
2011,07,07,01,42,1.80
2011,07,07,01,43,0.10
2011,07,07,01,44,0.00
2011,07,07,01,45,0.00
2011,07,07,01,46,0.00
2011,07,07,01,47,0.10
2011,07,07,01,48,0.00
2011,07,07,01,49,0.00
2011,07,07,01,50,0.80
2011,07,07,01,51,2.00
2011,07,07,01,52,0.00
2011,07,07,01,53,0.10
2011,07,07,01,54,0.80
2011,07,07,01,55,0.30
2011,07,07,01,56,0.50
2011,07,07,01,57,0.10
2011,07,07,01,58,0.20
2011,07,07,01,59,0.30
2011,07,07,02,00,0.00
2011,07,07,02,01,0.00
2011,07,07,02,02,0.00
2011,07,07,02,03,0.00
2011,07,07,02,04,0.00
2011,07,07,02,05,0.00
2011,07,07,02,06,1.80
2011,07,07,02,07,4.30
2011,07,07,02,08,1.00
2011,07,07,02,09,0.10
2011,07,07,02,10,0.50
2011,07,07,02,11,0.70
2011,07,07,02,12,1.30
2011,07,07,02,13,2.10
2011,07,07,02,14,0.80
2011,07,07,02,15,2.20
2011,07,07,02,16,0.50
2011,07,07,02,17,0.00
2011,07,07,02,18,0.00
2011,07,07,02,19,0.00
2011,07,07,02,20,0.00
2011,07,07,02,21,0.10
2011,07,07,02,22,0.20
2011,07,07,02,23,0.80
2011,07,07,02,24,2.60
2011,07,07,02,25,1.90
2011,07,07,02,26,1.80
2011,07,07,02,27,3.50
2011,07,07,02,28,1.90
2011,07,07,02,29,2.10
2011,07,07,02,30,4.70
2011,07,07,02,31,3.00
2011,07,07,02,32,4.50
2011,07,07,02,33,2.90
2011,07,07,02,34,3.00
2011,07,07,02,35,5.50
2011,07,07,02,36,5.00
2011,07,07,02,37,5.50
2011,07,07,02,38,5.10
2011,07,07,02,39,3.10
2011,07,07,02,40,2.10
2011,07,07,02,41,2.80
2011,07,07,02,42,4.20
2011,07,07,02,43,1.40
2011,07,07,02,44,3.10
2011,07,07,02,45,0.30
2011,07,07,02,46,1.00
2011,07,07,02,47,3.60
2011,07,07,02,48,1.60
2011,07,07,02,49,1.30
2011,07,07,02,50,3.60
2011,07,07,02,51,2.80
2011,07,07,02,52,0.90
2011,07,07,02,53,1.30
2011,07,07,02,54,2.00
2011,07,07,02,55,0.10
2011,07,07,02,56,0.50
2011,07,07,02,57,0.60
2011,07,07,02,58,0.60
2011,07,07,02,59,0.90
2011,07,07,03,00,3.30
2011,07,07,03,01,4.70
2011,07,07,03,02,4.70
2011,07,07,03,03,1.50
2011,07,07,03,04,4.20
2011,07,07,03,05,3.00
2011,07,07,03,06,5.00
2011,07,07,03,07,5.40
2011,07,07,03,08,0.50
2011,07,07,03,09,0.00
2011,07,07,03,10,1.90
2011,07,07,03,11,1.60
2011,07,07,03,12,3.60
2011,07,07,03,13,1.90
2011,07,07,03,14,1.50
2011,07,07,03,15,1.80
2011,07,07,03,16,0.90
2011,07,07,03,17,0.70
2011,07,07,03,18,0.20
2011,07,07,03,19,0.90
2011,07,07,03,20,1.60
2011,07,07,03,21,3.20
2011,07,07,03,22,3.30
2011,07,07,03,23,1.90
2011,07,07,03,24,5.00
2011,07,07,03,25,4.40
2011,07,07,03,26,0.60
2011,07,07,03,27,1.40
2011,07,07,03,28,1.70
2011,07,07,03,29,3.50
2011,07,07,03,30,6.40
2011,07,07,03,31,2.80
2011,07,07,03,32,2.70
2011,07,07,03,33,0.60
2011,07,07,03,34,2.60
2011,07,07,03,35,5.10
2011,07,07,03,36,0.30
2011,07,07,03,37,0.20
2011,07,07,03,38,2.30
2011,07,07,03,39,3.30
2011,07,07,03,40,1.60
2011,07,07,03,41,4.30
2011,07,07,03,42,4.50
2011,07,07,03,43,1.10
2011,07,07,03,44,2.10
2011,07,07,03,45,5.60
2011,07,07,03,46,6.90
2011,07,07,03,47,2.50
2011,07,07,03,48,4.40
2011,07,07,03,49,0.30
2011,07,07,03,50,2.20
2011,07,07,03,51,0.90
2011,07,07,03,52,4.90
2011,07,07,03,53,5.20
2011,07,07,03,54,2.80
2011,07,07,03,55,0.40
2011,07,07,03,56,1.60
2011,07,07,03,57,0.70
2011,07,07,03,58,2.40
2011,07,07,03,59,2.30
2011,07,07,04,00,4.40
2011,07,07,04,01,1.70
2011,07,07,04,02,1.20
2011,07,07,04,03,2.00
2011,07,07,04,04,5.80
2011,07,07,04,05,4.30
2011,07,07,04,06,1.90
2011,07,07,04,07,2.00
2011,07,07,04,08,4.00
2011,07,07,04,09,0.40
2011,07,07,04,10,3.90
2011,07,07,04,11,0.60
2011,07,07,04,12,1.10
2011,07,07,04,13,0.90
2011,07,07,04,14,2.30
2011,07,07,04,15,1.90
2011,07,07,04,16,0.20
2011,07,07,04,17,0.80
2011,07,07,04,18,4.40
2011,07,07,04,19,6.20
2011,07,07,04,20,1.20
2011,07,07,04,21,1.90
2011,07,07,04,22,7.80
2011,07,07,04,23,0.70
2011,07,07,04,24,5.30
2011,07,07,04,25,5.40
2011,07,07,04,26,4.90
2011,07,07,04,27,1.30
2011,07,07,04,28,0.00
2011,07,07,04,29,0.80
2011,07,07,04,30,1.40
2011,07,07,04,31,1.30
2011,07,07,04,32,3.30
2011,07,07,04,33,3.30
2011,07,07,04,34,3.30
2011,07,07,04,35,0.80
2011,07,07,04,36,4.40
2011,07,07,04,37,4.30
2011,07,07,04,38,2.10
2011,07,07,04,39,2.00
2011,07,07,04,40,0.10
2011,07,07,04,41,2.50
2011,07,07,04,42,3.20
2011,07,07,04,43,0.50
2011,07,07,04,44,0.90
2011,07,07,04,45,0.80
2011,07,07,04,46,0.70
2011,07,07,04,47,1.50
2011,07,07,04,48,3.50
2011,07,07,04,49,1.90
2011,07,07,04,50,3.40
2011,07,07,04,51,1.50
2011,07,07,04,52,0.30
2011,07,07,04,53,5.80
2011,07,07,04,54,0.50
2011,07,07,04,55,0.10
2011,07,07,04,56,0.70
2011,07,07,04,57,1.10
2011,07,07,04,58,2.50
2011,07,07,04,59,1.10
2011,07,07,05,00,2.20
2011,07,07,05,01,1.60
2011,07,07,05,02,0.50
2011,07,07,05,03,0.10
2011,07,07,05,04,0.00
2011,07,07,05,05,0.00
2011,07,07,05,06,0.30
2011,07,07,05,07,0.90
2011,07,07,05,08,4.30
2011,07,07,05,09,0.30
2011,07,07,05,10,1.30
2011,07,07,05,11,0.00
2011,07,07,05,12,2.10
2011,07,07,05,13,0.00
2011,07,07,05,14,0.10
2011,07,07,05,15,0.00
2011,07,07,05,16,1.10
2011,07,07,05,17,0.00
2011,07,07,05,18,0.20
2011,07,07,05,19,0.10
2011,07,07,05,20,0.80
2011,07,07,05,21,1.80
2011,07,07,05,22,0.50
2011,07,07,05,23,0.00
2011,07,07,05,24,0.00
2011,07,07,05,25,0.10
2011,07,07,05,26,0.00
2011,07,07,05,27,0.00
2011,07,07,05,28,3.00
2011,07,07,05,29,0.50
2011,07,07,05,30,0.10
2011,07,07,05,31,0.00
2011,07,07,05,32,0.00
2011,07,07,05,33,2.40
2011,07,07,05,34,2.90
2011,07,07,05,35,0.60
2011,07,07,05,36,0.00
2011,07,07,05,37,0.80
2011,07,07,05,38,0.30
2011,07,07,05,39,0.00
2011,07,07,05,40,0.00
2011,07,07,05,41,0.20
2011,07,07,05,42,0.70
2011,07,07,05,43,0.10
2011,07,07,05,44,0.70
2011,07,07,05,45,1.10
2011,07,07,05,46,0.30
2011,07,07,05,47,0.10
2011,07,07,05,48,0.00
2011,07,07,05,49,0.40
2011,07,07,05,50,0.30
2011,07,07,05,51,0.00
2011,07,07,05,52,0.10
2011,07,07,05,53,1.00
2011,07,07,05,54,0.00
2011,07,07,05,55,0.00
2011,07,07,05,56,0.10
2011,07,07,05,57,0.10
2011,07,07,05,58,0.00
2011,07,07,05,59,0.00
2011,07,07,06,00,0.00
2011,07,07,06,01,0.00
2011,07,07,06,02,0.00
2011,07,07,06,03,0.10
2011,07,07,06,04,0.00
2011,07,07,06,05,0.00
2011,07,07,06,06,0.00
2011,07,07,06,07,0.10
2011,07,07,06,08,0.00
2011,07,07,06,09,0.30
2011,07,07,06,10,0.40
2011,07,07,06,11,0.00
2011,07,07,06,12,0.00
2011,07,07,06,13,0.00
2011,07,07,06,14,0.00
2011,07,07,06,15,0.00
2011,07,07,06,16,0.50
2011,07,07,06,17,0.70
2011,07,07,06,18,1.50
2011,07,07,06,19,0.00
2011,07,07,06,20,0.00
2011,07,07,06,21,0.10
2011,07,07,06,22,0.00
2011,07,07,06,23,0.00
2011,07,07,06,24,0.00
2011,07,07,06,25,0.00
2011,07,07,06,26,0.00
2011,07,07,06,27,0.00
2011,07,07,06,28,0.30
2011,07,07,06,29,0.00
2011,07,07,06,30,0.00
2011,07,07,06,31,0.00
2011,07,07,06,32,0.60
2011,07,07,06,33,1.30
2011,07,07,06,34,2.00
2011,07,07,06,35,3.50
2011,07,07,06,36,1.00
2011,07,07,06,37,0.20
2011,07,07,06,38,0.00
2011,07,07,06,39,0.10
2011,07,07,06,40,0.10
2011,07,07,06,41,0.10
2011,07,07,06,42,0.80
2011,07,07,06,43,2.40
2011,07,07,06,44,2.20
2011,07,07,06,45,2.10
2011,07,07,06,46,0.00
2011,07,07,06,47,0.80
2011,07,07,06,48,0.40
2011,07,07,06,49,3.10
2011,07,07,06,50,2.60
2011,07,07,06,51,1.60
2011,07,07,06,52,3.00
2011,07,07,06,53,0.00
2011,07,07,06,54,0.80
2011,07,07,06,55,4.20
2011,07,07,06,56,0.60
2011,07,07,06,57,0.20
2011,07,07,06,58,0.10
2011,07,07,06,59,0.00
2011,07,07,07,00,0.00
2011,07,07,07,01,0.90
2011,07,07,07,02,8.00
2011,07,07,07,03,11.00
2011,07,07,07,04,4.20
2011,07,07,07,05,8.60
2011,07,07,07,06,8.40
2011,07,07,07,07,6.70
2011,07,07,07,08,1.70
2011,07,07,07,09,2.60
2011,07,07,07,10,6.20
2011,07,07,07,11,9.10
2011,07,07,07,12,5.90
2011,07,07,07,13,8.60
2011,07,07,07,14,5.40
2011,07,07,07,15,7.10
2011,07,07,07,16,9.00
2011,07,07,07,17,7.90
2011,07,07,07,18,3.20
2011,07,07,07,19,6.60
2011,07,07,07,20,8.90
2011,07,07,07,21,5.30
2011,07,07,07,22,7.10
2011,07,07,07,23,8.70
2011,07,07,07,24,13.00
2011,07,07,07,25,11.00
2011,07,07,07,26,8.80
2011,07,07,07,27,12.20
2011,07,07,07,28,6.00
2011,07,07,07,29,12.50
2011,07,07,07,30,10.20
2011,07,07,07,31,12.50
2011,07,07,07,32,11.90
2011,07,07,07,33,10.60
2011,07,07,07,34,9.70
2011,07,07,07,35,8.60
2011,07,07,07,36,9.50
2011,07,07,07,37,4.40
2011,07,07,07,38,5.90
2011,07,07,07,39,7.60
2011,07,07,07,40,6.90
2011,07,07,07,41,8.90
2011,07,07,07,42,9.10
2011,07,07,07,43,4.90
2011,07,07,07,44,1.80
2011,07,07,07,45,3.20
2011,07,07,07,46,1.70
2011,07,07,07,47,2.50
2011,07,07,07,48,6.30
2011,07,07,07,49,5.50
2011,07,07,07,50,6.90
2011,07,07,07,51,5.80
2011,07,07,07,52,3.20
2011,07,07,07,53,4.10
2011,07,07,07,54,7.40
2011,07,07,07,55,7.90
2011,07,07,07,56,5.40
2011,07,07,07,57,7.60
2011,07,07,07,58,2.80
2011,07,07,07,59,1.40
2011,07,07,08,00,2.60
2011,07,07,08,01,5.80
2011,07,07,08,02,1.70
2011,07,07,08,03,8.20
2011,07,07,08,04,5.40
2011,07,07,08,05,5.40
2011,07,07,08,06,2.40
2011,07,07,08,07,3.90
2011,07,07,08,08,5.80
2011,07,07,08,09,11.00
2011,07,07,08,10,7.40
2011,07,07,08,11,4.30
2011,07,07,08,12,8.10
2011,07,07,08,13,4.30
2011,07,07,08,14,3.00
2011,07,07,08,15,8.60
2011,07,07,08,16,3.90
2011,07,07,08,17,3.10
2011,07,07,08,18,6.20
2011,07,07,08,19,11.30
2011,07,07,08,20,7.20
2011,07,07,08,21,7.20
2011,07,07,08,22,6.60
2011,07,07,08,23,6.50
2011,07,07,08,24,5.30
2011,07,07,08,25,5.30
2011,07,07,08,26,2.50
2011,07,07,08,27,3.70
2011,07,07,08,28,8.50
2011,07,07,08,29,8.10
2011,07,07,08,30,5.30
2011,07,07,08,31,12.30
2011,07,07,08,32,10.70
2011,07,07,08,33,8.80
2011,07,07,08,34,6.40
2011,07,07,08,35,2.50
2011,07,07,08,36,7.00
2011,07,07,08,37,6.80
2011,07,07,08,38,6.40
2011,07,07,08,39,10.80
2011,07,07,08,40,9.40
2011,07,07,08,41,12.60
2011,07,07,08,42,5.20
2011,07,07,08,43,7.40
2011,07,07,08,44,11.70
2011,07,07,08,45,7.30
2011,07,07,08,46,3.30
2011,07,07,08,47,8.50
2011,07,07,08,48,10.20
2011,07,07,08,49,8.50
2011,07,07,08,50,7.70
2011,07,07,08,51,7.50
2011,07,07,08,52,5.70
2011,07,07,08,53,2.50
2011,07,07,08,54,2.70
2011,07,07,08,55,5.20
2011,07,07,08,56,6.50
2011,07,07,08,57,4.60
2011,07,07,08,58,6.30
2011,07,07,08,59,8.80
2011,07,07,09,00,9.30
2011,07,07,09,01,9.30
2011,07,07,09,02,15.90
2011,07,07,09,03,13.70
2011,07,07,09,04,5.30
2011,07,07,09,05,7.00
2011,07,07,09,06,5.50
2011,07,07,09,07,9.00
2011,07,07,09,08,9.80
2011,07,07,09,09,14.00
2011,07,07,09,10,12.30
2011,07,07,09,11,14.60
2011,07,07,09,12,13.70
2011,07,07,09,13,12.80
2011,07,07,09,14,18.20
2011,07,07,09,15,11.20
2011,07,07,09,16,15.00
2011,07,07,09,17,12.00
2011,07,07,09,18,12.30
2011,07,07,09,19,14.70
2011,07,07,09,20,10.80
2011,07,07,09,21,6.50
2011,07,07,09,22,5.70
2011,07,07,09,23,12.30
2011,07,07,09,24,10.10
2011,07,07,09,25,10.10
2011,07,07,09,26,10.80
2011,07,07,09,27,17.60
2011,07,07,09,28,13.40
2011,07,07,09,29,7.80
2011,07,07,09,30,13.40
2011,07,07,09,31,12.50
2011,07,07,09,32,5.50
2011,07,07,09,33,6.10
2011,07,07,09,34,4.00
2011,07,07,09,35,6.40
2011,07,07,09,36,6.90
2011,07,07,09,37,13.40
2011,07,07,09,38,13.20
2011,07,07,09,39,11.30
2011,07,07,09,40,8.50
2011,07,07,09,41,5.20
2011,07,07,09,42,7.90
2011,07,07,09,43,7.30
2011,07,07,09,44,10.50
2011,07,07,09,45,11.10
2011,07,07,09,46,8.40
2011,07,07,09,47,14.50
2011,07,07,09,48,6.80
2011,07,07,09,49,9.70
2011,07,07,09,50,10.50
2011,07,07,09,51,2.30
2011,07,07,09,52,2.70
2011,07,07,09,53,6.00
2011,07,07,09,54,7.70
2011,07,07,09,55,3.60
2011,07,07,09,56,3.40
2011,07,07,09,57,9.00
2011,07,07,09,58,12.60
2011,07,07,09,59,14.70
2011,07,07,10,00,14.60
2011,07,07,10,01,13.90
2011,07,07,10,02,12.50
2011,07,07,10,03,7.70
2011,07,07,10,04,11.10
2011,07,07,10,05,7.50
2011,07,07,10,06,17.90
2011,07,07,10,07,12.00
2011,07,07,10,08,13.30
2011,07,07,10,09,15.90
2011,07,07,10,10,20.70
2011,07,07,10,11,18.10
2011,07,07,10,12,14.70
2011,07,07,10,13,8.10
2011,07,07,10,14,13.70
2011,07,07,10,15,13.90
2011,07,07,10,16,17.80
2011,07,07,10,17,14.20
2011,07,07,10,18,10.90
2011,07,07,10,19,7.50
2011,07,07,10,20,5.80
2011,07,07,10,21,5.60
2011,07,07,10,22,6.60
2011,07,07,10,23,8.10
2011,07,07,10,24,8.60
2011,07,07,10,25,10.90
2011,07,07,10,26,12.20
2011,07,07,10,27,12.80
2011,07,07,10,28,13.00
2011,07,07,10,29,10.50
2011,07,07,10,30,11.10
2011,07,07,10,31,19.40
2011,07,07,10,32,8.10
2011,07,07,10,33,3.80
2011,07,07,10,34,5.80
2011,07,07,10,35,9.50
2011,07,07,10,36,15.90
2011,07,07,10,37,9.50
2011,07,07,10,38,12.60
2011,07,07,10,39,11.30
2011,07,07,10,40,20.60
2011,07,07,10,41,16.10
2011,07,07,10,42,16.20
2011,07,07,10,43,12.60
2011,07,07,10,44,14.50
2011,07,07,10,45,14.20
2011,07,07,10,46,7.20
2011,07,07,10,47,11.70
2011,07,07,10,48,3.50
2011,07,07,10,49,8.90
2011,07,07,10,50,7.10
2011,07,07,10,51,7.50
2011,07,07,10,52,13.60
2011,07,07,10,53,6.80
2011,07,07,10,54,18.30
2011,07,07,10,55,14.30
2011,07,07,10,56,16.30
2011,07,07,10,57,11.00
2011,07,07,10,58,16.40
2011,07,07,10,59,8.00
2011,07,07,11,00,13.50
2011,07,07,11,01,18.90
2011,07,07,11,02,8.40
2011,07,07,11,03,14.80
2011,07,07,11,04,17.80
2011,07,07,11,05,14.10
2011,07,07,11,06,9.20
2011,07,07,11,07,13.30
2011,07,07,11,08,17.60
2011,07,07,11,09,15.00
2011,07,07,11,10,6.50
2011,07,07,11,11,10.10
2011,07,07,11,12,12.30
2011,07,07,11,13,12.90
2011,07,07,11,14,13.30
2011,07,07,11,15,16.70
2011,07,07,11,16,23.40
2011,07,07,11,17,15.90
2011,07,07,11,18,24.30
2011,07,07,11,19,17.80
2011,07,07,11,20,14.60
2011,07,07,11,21,14.60
2011,07,07,11,22,14.10
2011,07,07,11,23,13.50
2011,07,07,11,24,17.50
2011,07,07,11,25,13.30
2011,07,07,11,26,6.70
2011,07,07,11,27,9.10
2011,07,07,11,28,15.10
2011,07,07,11,29,15.50
2011,07,07,11,30,15.90
2011,07,07,11,31,17.70
2011,07,07,11,32,15.60
2011,07,07,11,33,16.70
2011,07,07,11,34,11.30
2011,07,07,11,35,13.40
2011,07,07,11,36,9.90
2011,07,07,11,37,7.30
2011,07,07,11,38,12.80
2011,07,07,11,39,23.00
2011,07,07,11,40,22.10
2011,07,07,11,41,21.00
2011,07,07,11,42,16.90
2011,07,07,11,43,17.40
2011,07,07,11,44,12.00
2011,07,07,11,45,19.20
2011,07,07,11,46,16.90
2011,07,07,11,47,8.70
2011,07,07,11,48,9.30
2011,07,07,11,49,10.70
2011,07,07,11,50,14.80
2011,07,07,11,51,11.40
2011,07,07,11,52,14.00
2011,07,07,11,53,9.80
2011,07,07,11,54,7.50
2011,07,07,11,55,16.30
2011,07,07,11,56,15.40
2011,07,07,11,57,12.60
2011,07,07,11,58,16.30
2011,07,07,11,59,14.70
2011,07,07,12,00,14.10
2011,07,07,12,01,11.10
2011,07,07,12,02,14.90
2011,07,07,12,03,15.20
2011,07,07,12,04,15.30
2011,07,07,12,05,16.40
2011,07,07,12,06,17.00
2011,07,07,12,07,17.40
2011,07,07,12,08,20.50
2011,07,07,12,09,15.00
2011,07,07,12,10,10.80
2011,07,07,12,11,13.30
2011,07,07,12,12,13.20
2011,07,07,12,13,13.20
2011,07,07,12,14,18.10
2011,07,07,12,15,16.00
2011,07,07,12,16,20.10
2011,07,07,12,17,18.00
2011,07,07,12,18,24.10
2011,07,07,12,19,17.20
2011,07,07,12,20,17.50
2011,07,07,12,21,7.90
2011,07,07,12,22,12.40
2011,07,07,12,23,13.40
2011,07,07,12,24,11.40
2011,07,07,12,25,8.30
2011,07,07,12,26,16.90
2011,07,07,12,27,20.40
2011,07,07,12,28,11.20
2011,07,07,12,29,19.90
2011,07,07,12,30,16.80
2011,07,07,12,31,15.40
2011,07,07,12,32,15.20
2011,07,07,12,33,18.20
2011,07,07,12,34,22.30
2011,07,07,12,35,19.20
2011,07,07,12,36,21.30
2011,07,07,12,37,20.10
2011,07,07,12,38,12.90
2011,07,07,12,39,19.20
2011,07,07,12,40,14.90
2011,07,07,12,41,24.10
2011,07,07,12,42,15.80
2011,07,07,12,43,12.90
2011,07,07,12,44,14.10
2011,07,07,12,45,17.40
2011,07,07,12,46,24.40
2011,07,07,12,47,15.00
2011,07,07,12,48,14.90
2011,07,07,12,49,12.30
2011,07,07,12,50,15.90
2011,07,07,12,51,19.90
2011,07,07,12,52,12.80
2011,07,07,12,53,7.50
2011,07,07,12,54,20.60
2011,07,07,12,55,15.10
2011,07,07,12,56,19.90
2011,07,07,12,57,19.90
2011,07,07,12,58,21.40
2011,07,07,12,59,19.00
2011,07,07,13,00,23.60
2011,07,07,13,01,8.70
2011,07,07,13,02,11.40
2011,07,07,13,03,11.10
2011,07,07,13,04,13.60
2011,07,07,13,05,24.30
2011,07,07,13,06,22.10
2011,07,07,13,07,19.10
2011,07,07,13,08,18.60
2011,07,07,13,09,16.90
2011,07,07,13,10,9.40
2011,07,07,13,11,19.20
2011,07,07,13,12,19.30
2011,07,07,13,13,29.00
2011,07,07,13,14,27.40
2011,07,07,13,15,25.90
2011,07,07,13,16,23.80
2011,07,07,13,17,19.10
2011,07,07,13,18,17.40
2011,07,07,13,19,12.00
2011,07,07,13,20,8.50
2011,07,07,13,21,9.80
2011,07,07,13,22,14.20
2011,07,07,13,23,12.00
2011,07,07,13,24,24.30
2011,07,07,13,25,12.20
2011,07,07,13,26,22.40
2011,07,07,13,27,17.00
2011,07,07,13,28,18.00
2011,07,07,13,29,23.10
2011,07,07,13,30,14.80
2011,07,07,13,31,19.90
2011,07,07,13,32,11.70
2011,07,07,13,33,13.40
2011,07,07,13,34,14.10
2011,07,07,13,35,15.90
2011,07,07,13,36,14.90
2011,07,07,13,37,20.00
2011,07,07,13,38,23.70
2011,07,07,13,39,20.40
2011,07,07,13,40,26.00
2011,07,07,13,41,27.60
2011,07,07,13,42,25.20
2011,07,07,13,43,16.50
2011,07,07,13,44,20.00
2011,07,07,13,45,23.00
2011,07,07,13,46,21.00
2011,07,07,13,47,20.70
2011,07,07,13,48,15.80
2011,07,07,13,49,21.20
2011,07,07,13,50,22.30
2011,07,07,13,51,20.80
2011,07,07,13,52,21.50
2011,07,07,13,53,19.40
2011,07,07,13,54,23.60
2011,07,07,13,55,30.20
2011,07,07,13,56,23.90
2011,07,07,13,57,25.20
2011,07,07,13,58,24.50
2011,07,07,13,59,28.50
2011,07,07,14,00,31.30
2011,07,07,14,01,26.30
2011,07,07,14,02,26.30
2011,07,07,14,03,22.30
2011,07,07,14,04,22.80
2011,07,07,14,05,17.50
2011,07,07,14,06,19.10
2011,07,07,14,07,21.30
2011,07,07,14,08,24.60
2011,07,07,14,09,26.90
2011,07,07,14,10,24.70
2011,07,07,14,11,21.90
2011,07,07,14,12,14.10
2011,07,07,14,13,25.40
2011,07,07,14,14,23.90
2011,07,07,14,15,23.80
2011,07,07,14,16,31.40
2011,07,07,14,17,27.10
2011,07,07,14,18,18.10
2011,07,07,14,19,11.70
2011,07,07,14,20,21.40
2011,07,07,14,21,22.10
2011,07,07,14,22,23.90
2011,07,07,14,23,19.00
2011,07,07,14,24,22.40
2011,07,07,14,25,17.90
2011,07,07,14,26,22.80
2011,07,07,14,27,23.40
2011,07,07,14,28,26.70
2011,07,07,14,29,20.20
2011,07,07,14,30,24.10
2011,07,07,14,31,18.80
2011,07,07,14,32,22.00
2011,07,07,14,33,23.90
2011,07,07,14,34,24.70
2011,07,07,14,35,21.20
2011,07,07,14,36,19.80
2011,07,07,14,37,19.30
2011,07,07,14,38,15.60
2011,07,07,14,39,24.40
2011,07,07,14,40,25.80
2011,07,07,14,41,19.10
2011,07,07,14,42,23.30
2011,07,07,14,43,19.30
2011,07,07,14,44,27.90
2011,07,07,14,45,25.50
2011,07,07,14,46,20.00
2011,07,07,14,47,15.10
2011,07,07,14,48,26.30
2011,07,07,14,49,25.20
2011,07,07,14,50,20.70
2011,07,07,14,51,18.80
2011,07,07,14,52,27.00
2011,07,07,14,53,24.60
2011,07,07,14,54,31.40
2011,07,07,14,55,23.70
2011,07,07,14,56,23.70
2011,07,07,14,57,20.10
2011,07,07,14,58,29.20
2011,07,07,14,59,22.40
2011,07,07,15,00,27.20
2011,07,07,15,01,28.70
2011,07,07,15,02,20.50
2011,07,07,15,03,21.10
2011,07,07,15,04,23.90
2011,07,07,15,05,30.40
2011,07,07,15,06,24.40
2011,07,07,15,07,15.80
2011,07,07,15,08,18.10
2011,07,07,15,09,15.20
2011,07,07,15,10,19.80
2011,07,07,15,11,21.70
2011,07,07,15,12,20.00
2011,07,07,15,13,21.10
2011,07,07,15,14,19.00
2011,07,07,15,15,23.60
2011,07,07,15,16,25.90
2011,07,07,15,17,26.80
2011,07,07,15,18,32.60
2011,07,07,15,19,27.30
2011,07,07,15,20,22.00
2011,07,07,15,21,28.00
2011,07,07,15,22,23.90
2011,07,07,15,23,24.40
2011,07,07,15,24,22.20
2011,07,07,15,25,19.30
2011,07,07,15,26,28.20
2011,07,07,15,27,16.60
2011,07,07,15,28,22.00
2011,07,07,15,29,22.50
2011,07,07,15,30,30.90
2011,07,07,15,31,23.40
2011,07,07,15,32,26.60
2011,07,07,15,33,21.00
2011,07,07,15,34,12.20
2011,07,07,15,35,9.60
2011,07,07,15,36,17.50
2011,07,07,15,37,18.00
2011,07,07,15,38,37.10
2011,07,07,15,39,30.50
2011,07,07,15,40,29.70
2011,07,07,15,41,30.70
2011,07,07,15,42,29.50
2011,07,07,15,43,24.30
2011,07,07,15,44,26.50
2011,07,07,15,45,20.00
2011,07,07,15,46,30.70
2011,07,07,15,47,26.00
2011,07,07,15,48,29.40
2011,07,07,15,49,28.50
2011,07,07,15,50,27.40
2011,07,07,15,51,19.20
2011,07,07,15,52,22.50
2011,07,07,15,53,21.90
2011,07,07,15,54,24.80
2011,07,07,15,55,24.00
2011,07,07,15,56,20.80
2011,07,07,15,57,22.80
2011,07,07,15,58,23.40
2011,07,07,15,59,20.00
2011,07,07,16,00,30.70
2011,07,07,16,01,22.60
2011,07,07,16,02,26.90
2011,07,07,16,03,24.60
2011,07,07,16,04,23.10
2011,07,07,16,05,26.40
2011,07,07,16,06,22.10
2011,07,07,16,07,22.10
2011,07,07,16,08,24.10
2011,07,07,16,09,23.60
2011,07,07,16,10,24.90
2011,07,07,16,11,30.80
2011,07,07,16,12,22.60
2011,07,07,16,13,26.20
2011,07,07,16,14,24.10
2011,07,07,16,15,22.20
2011,07,07,16,16,16.10
2011,07,07,16,17,16.50
2011,07,07,16,18,17.60
2011,07,07,16,19,23.30
2011,07,07,16,20,19.00
2011,07,07,16,21,26.10
2011,07,07,16,22,23.30
2011,07,07,16,23,20.80
2011,07,07,16,24,23.70
2011,07,07,16,25,25.00
2011,07,07,16,26,25.80
2011,07,07,16,27,15.30
2011,07,07,16,28,9.60
2011,07,07,16,29,16.90
2011,07,07,16,30,21.30
2011,07,07,16,31,20.00
2011,07,07,16,32,17.00
2011,07,07,16,33,28.00
2011,07,07,16,34,33.90
2011,07,07,16,35,30.80
2011,07,07,16,36,18.90
2011,07,07,16,37,18.40
2011,07,07,16,38,30.70
2011,07,07,16,39,21.70
2011,07,07,16,40,18.30
2011,07,07,16,41,18.50
2011,07,07,16,42,25.10
2011,07,07,16,43,27.40
2011,07,07,16,44,24.70
2011,07,07,16,45,23.50
2011,07,07,16,46,28.10
2011,07,07,16,47,29.00
2011,07,07,16,48,30.00
2011,07,07,16,49,17.70
2011,07,07,16,50,27.80
2011,07,07,16,51,20.40
2011,07,07,16,52,25.50
2011,07,07,16,53,34.30
2011,07,07,16,54,26.90
2011,07,07,16,55,30.00
2011,07,07,16,56,29.10
2011,07,07,16,57,30.30
2011,07,07,16,58,26.40
2011,07,07,16,59,21.00
2011,07,07,17,00,27.00
2011,07,07,17,01,21.40
2011,07,07,17,02,25.80
2011,07,07,17,03,22.90
2011,07,07,17,04,27.20
2011,07,07,17,05,25.30
2011,07,07,17,06,22.80
2011,07,07,17,07,21.90
2011,07,07,17,08,27.00
2011,07,07,17,09,28.20
2011,07,07,17,10,16.30
2011,07,07,17,11,20.20
2011,07,07,17,12,20.10
2011,07,07,17,13,17.10
2011,07,07,17,14,25.00
2011,07,07,17,15,22.70
2011,07,07,17,16,21.40
2011,07,07,17,17,20.70
2011,07,07,17,18,20.00
2011,07,07,17,19,8.10
2011,07,07,17,20,17.10
2011,07,07,17,21,10.20
2011,07,07,17,22,20.90
2011,07,07,17,23,29.60
2011,07,07,17,24,28.40
2011,07,07,17,25,32.20
2011,07,07,17,26,22.40
2011,07,07,17,27,19.60
2011,07,07,17,28,27.90
2011,07,07,17,29,12.50
2011,07,07,17,30,22.70
2011,07,07,17,31,16.10
2011,07,07,17,32,25.10
2011,07,07,17,33,25.40
2011,07,07,17,34,24.40
2011,07,07,17,35,21.70
2011,07,07,17,36,14.10
2011,07,07,17,37,25.40
2011,07,07,17,38,14.10
2011,07,07,17,39,18.90
2011,07,07,17,40,20.70
2011,07,07,17,41,16.50
2011,07,07,17,42,20.00
2011,07,07,17,43,25.10
2011,07,07,17,44,20.40
2011,07,07,17,45,21.50